STARLINK-11717, 64126

Orbit data source: Space-Track

STARLINK-11717, 64126 is a payload satellite owned by SpaceX/Seattle (US) in LEO that was launched on Sat, 24 May 2025 UTC via an FALCON 9 launch vehicle from the Air Force Eastern Test Range (AFETR). Payload-class satellites include a variety of spacecraft equipped with specific instruments for various scientific and technological missions. These include communications satellites like Starlink; space stations such as the ISS; scientific satellites like the Hubble; Earth observation satellites from companies like Planet Labs, Umbra, and HawkEye 360; GPS; miniature CubeSats for education and research; and military/defense satellites.

Loading next visibility...
Identifier
64126, 2025-111D
Orbit
LEO
Country
Flag of USUS
Related business
Manufacturer
SpaceX/Seattle
Mission
Operational Commercial Communications
Bus & Motor
STARLINK V2MD, Unknown motor
Mass
960 kg wet, ~910 kg dry
Launch date (UTC)
2025-05-24 (1 year ago)
Launch vehicle
FALCON 9
Launch site
Air Force Eastern Test Range (AFETR)
Object type
Payload
Rocket body
Debris
Shape & HBR
Box + 2 Pan, 18.1 m
Radar Cross Section
36.964 m², Large (>1 m²)

Expand to show TLE details & history
Last TLE update: 1 day ago

TLE from 1 day ago
0 STARLINK-11717
1 64126U 25111D   26170.46379195  .00264569  00000-0  19910-2 0  9993
2 64126  43.0012  80.5586 0001871 283.0578  77.0081 15.70952456 62592
Epoch: 2026-06-19T11:07Z
TLE epoch observation values (Epoch: 2026-06-19T11:07:51.624Z)
Latitude
-0°
Longitude
5.9011°
Altitude
355.662 km
Speed
7.698 km/s
True Right ascension
05h 22m 14s
True Declination
0° 00' 00"
Sunlit
Object was in daylight at epoch
Visualization orbit readout
Latitude
Unknown
Longitude
Unknown
Altitude
Unknown
Speed
Unknown
Apparent Right ascension
Unknown
Apparent Declination
Unknown
Sunlit
N/A
Visualization observer readout
Local Sidereal Time
07:15:46
Azimuth
Unknown
Elevation
Unknown
Doppler factor
Unknown
Orbital elements
Apogee altitude
359.415 km
Perigee altitude
356.895 km
Semi-major axis
6,736.292 km
Eccentricity
0.00019
Inclination
43.0012°
RAAN
80.5586°
Arg. of periapsis
283.0578°
True anomaly
77.02899°
Mean anomaly
77.0081°
Eccentric anomaly
77.01855°
Mean motion
3.92565 °/min
Orbital period
91.7 mins
BSTAR
0.001991
Loading maneuver chart data...
Computing Atmospheric mass density...
Loading historical data...
Loading historical data...
Loading historical data...
Loading historical data...
Loading historical data...
Loading historical data...
Loading historical data...

Documentation

Showing up to 5 results
|